Theta_e
344 346 347 346 344 346 347 346 345 344 343 340 340 339 343 347 345 345 347 347 346 345 346 346 345 344 343 345 344 343 343 342 335 338 341 343 342 348 347 343 343 340 339
347 346 346 347 347 346 347 347 346 342 342 339 339 337 342 344 347 347 347 348 346 343 343 345 345 352 344 341 343 342 342 343 337 333 338 342 340 338 341 339 343 344 340
342 342 343 345 345 347 347 347 346 341 338 336 340 340 337 340 347 349 347 345 348 346 345 344 341 339 342 342 344 343 342 345 341 337 335 339 343 343 341 346 344 340 341
341 336 335 339 344 346 348 346 345 342 336 332 338 343 343 346 349 349 350 347 345 348 348 345 341 338 342 341 343 342 342 342 341 339 337 336 338 341 340 338 337 336 334
336 337 340 339 338 337 337 341 345 346 343 339 337 342 347 348 350 348 349 348 347 347 348 348 347 347 345 342 344 343 341 340 338 336 334 335 335 337 333 334 335 333 333
336 337 339 340 338 336 334 334 334 341 346 346 346 346 347 351 342 342 347 349 348 347 345 346 346 348 346 341 342 341 343 341 337 335 335 332 332 334 336 336 336 332 330
337 339 341 339 340 340 337 335 335 334 339 345 347 348 347 349 339 338 342 345 346 347 346 346 345 349 345 342 336 335 335 333 338 340 336 335 335 334 334 331 331 330 333
336 337 338 336 337 338 335 336 338 338 338 343 346 347 348 348 336 334 338 344 342 345 347 347 345 344 344 341 337 335 328 325 329 338 337 329 328 327 332 333 333 328 331
335 335 337 333 331 332 333 335 341 343 343 346 347 346 348 349 332 332 335 342 344 343 346 346 346 342 336 332 340 329 321 320 322 323 323 323 324 325 327 332 330 328 327
337 338 338 336 332 332 337 340 344 345 346 347 347 348 342 348 332 328 332 342 342 342 343 340 330 340 326 326 340 328 321 318 321 322 319 319 321 324 326 324 325 330 324
336 337 338 340 340 341 341 344 345 344 343 342 342 343 345 343 345 325 324 340 343 342 341 333 331 325 320 319 326 333 328 322 325 322 322 321 321 322 324 325 325 325 317
335 332 334 336 340 342 339 341 342 341 340 339 342 342 343 344 329 326 320 323 334 343 341 336 327 316 317 319 325 323 318 325 325 322 321 320 319 320 322 322 321 320 320
331 329 332 334 336 334 333 331 330 331 333 333 333 331 333 337 333 319 317 317 321 338 336 327 318 313 313 317 317 319 323 326 323 320 319 317 319 321 322 322 322 320 319
328 328 330 332 331 327 321 319 325 327 329 331 333 330 331 331 329 327 325 325 320 324 321 319 319 322 321 321 322 325 327 325 322 319 318 319 318 317 318 321 319 317 314
329 327 330 331 329 314 308 309 313 314 312 320 327 329 331 329 328 318 318 324 326 320 322 323 323 324 323 324 325 324 323 322 319 319 319 318 317 317 313 315 317 316 313
325 325 328 329 328 321 310 307 303 302 300 298 298 302 317 305 305 303 301 301 305 308 323 323 323 324 323 322 321 320 321 320 320 320 318 316 314 311 309 310 310 312 311
325 324 329 325 328 320 316 316 315 306 301 298 297 298 299 305 298 299 301 302 306 313 319 318 318 318 319 320 319 319 317 317 316 314 311 307 308 306 306 306 307 307 304
329 318 330 328 324 321 319 317 316 314 311 308 302 299 296 296 297 298 302 309 317 316 317 316 316 316 315 315 314 313 311 310 308 307 307 306 304 302 301 301 302 302 303
328 328 328 324 322 318 316 315 313 311 310 309 311 307 303 299 300 302 308 318 317 316 317 316 316 316 316 314 313 312 310 307 305 305 304 304 302 301 298 298 300 302 303
326 325 324 321 318 317 316 315 315 314 314 314 314 315 316 315 315 316 317 316 316 315 315 315 316 316 316 315 313 311 307 305 304 304 304 304 303 303 302 300 301 302 301
325 326 323 321 319 318 318 317 317 316 316 316 316 313 306 314 313 313 315 316 315 316 316 315 314 315 315 313 310 308 307 306 306 306 304 303 303 303 303 302 303 302 302
326 327 324 321 320 319 318 318 318 317 316 315 311 309 302 314 314 314 314 315 316 315 313 313 312 311 312 310 309 308 308 309 307 306 305 305 304 305 303 302 302 300 300
328 328 326 322 320 317 318 319 317 315 314 312 311 310 310 310 311 313 314 313 313 313 312 311 311 310 310 308 309 310 309 308 308 307 306 305 304 304 303 303 301 299 298
327 326 327 326 321 320 319 318 317 313 315 314 313 312 312 312 313 313 315 315 315 313 313 313 312 313 312 312 312 312 310 308 309 308 308 306 303 301 302 301 299 298 297
323 322 322 322 322 321 319 318 318 317 318 316 316 315 313 313 313 314 317 315 315 315 316 316 316 316 316 315 313 312 305 297 305 302 309 306 304 302 302 302 301 299 297
318 318 319 318 319 320 319 317 316 315 316 316 316 315 315 314 314 316 317 315 316 315 315 316 316 316 318 317 316 306 292 291 301 298 309 306 304 303 302 301 302 300 300
Wind_Speed
10 5 6 7 8 6 6 6 7 7 7 6 6 5 6 6 7 5 5 5 4 3 2 2 3 3 3 3 1 0 3 3 2 2 1 2 2 3 3 3 5 3 3
8 8 9 8 7 8 8 7 7 8 6 6 6 4 3 5 6 6 6 4 6 5 5 4 4 2 4 2 3 2 1 2 4 3 1 1 1 2 2 3 3 4 2
3 3 4 7 9 10 9 7 7 7 6 5 6 5 7 6 7 6 7 6 6 5 6 5 6 4 4 2 3 4 2 2 2 3 3 2 2 3 3 2 3 4 4
4 1 3 6 7 8 9 6 7 8 8 7 7 7 7 7 6 6 6 7 6 6 6 6 6 6 6 5 5 5 4 4 3 2 2 2 1 2 2 4 3 1 3
7 6 5 3 1 2 3 3 5 7 9 9 8 9 9 7 6 7 7 7 7 6 6 6 6 7 9 9 5 5 5 3 2 2 2 2 2 2 3 3 3 3 2
8 8 6 6 5 2 3 5 3 4 7 9 11 11 11 8 11 12 9 6 7 6 7 7 6 8 3 6 8 8 7 5 4 4 3 3 3 2 1 3 5 3 3
10 11 9 7 8 6 4 5 7 4 7 9 10 9 10 10 12 14 14 6 6 7 7 7 6 4 7 6 4 7 7 5 2 4 4 4 4 4 3 2 3 3 3
6 6 5 7 7 2 5 9 10 5 10 12 9 9 10 9 13 14 14 8 6 7 8 8 8 7 6 9 7 5 4 3 2 2 3 4 3 3 3 3 3 4 4
6 7 7 6 6 6 10 12 9 8 10 11 10 9 9 12 13 15 12 7 9 10 8 7 9 8 10 10 10 8 5 3 6 9 10 8 7 4 4 4 4 6 3
7 8 8 8 9 9 9 9 8 11 10 6 8 9 12 10 11 15 13 6 9 7 6 6 6 8 12 14 10 11 8 7 7 7 4 5 5 7 9 5 4 3 4
6 5 4 5 6 7 6 4 4 4 5 6 6 7 7 8 8 13 13 7 8 6 7 5 4 10 12 12 9 11 10 11 7 6 5 3 3 3 4 5 5 8 5
4 2 3 4 4 3 4 2 2 3 4 3 4 4 4 5 6 7 10 15 10 8 8 5 6 10 11 9 7 11 18 12 7 6 6 4 4 4 6 3 7 7 6
3 3 3 3 3 3 4 2 2 3 2 3 3 3 3 3 3 4 7 10 10 8 6 9 14 12 12 7 14 18 17 9 8 7 7 7 5 3 3 1 6 7 7
4 3 3 4 5 4 3 3 0 1 3 3 3 3 3 3 3 2 2 3 9 3 11 11 14 12 9 10 11 8 7 8 9 9 8 6 2 3 3 1 2 3 4
4 2 4 4 5 4 4 1 1 1 2 2 3 3 2 3 3 3 2 2 2 6 9 8 7 8 10 9 7 7 8 8 8 5 5 5 4 3 2 3 3 3 4
3 3 3 4 4 4 4 2 5 1 5 5 9 6 1 5 4 4 7 8 8 2 2 6 6 6 8 9 10 9 9 10 7 7 5 4 3 3 3 2 3 4 5
3 3 2 3 3 4 3 4 3 3 5 8 6 1 11 4 6 11 12 12 9 7 8 8 6 8 9 8 9 7 6 5 4 4 5 5 4 3 5 4 5 6 4
3 5 3 3 3 3 3 2 1 1 1 2 7 4 8 8 8 9 12 11 8 8 8 9 10 10 10 8 6 3 3 5 4 4 4 5 5 4 4 4 4 4 4
3 3 2 3 3 4 4 3 2 3 3 3 3 6 7 11 10 10 10 5 8 8 9 10 10 9 7 7 5 4 5 3 4 5 3 4 4 5 4 4 5 6 6
2 5 5 5 5 5 4 4 4 4 4 5 4 4 3 6 6 6 6 7 7 8 8 8 7 8 7 7 5 5 5 5 5 4 4 5 4 4 5 5 5 4 3
3 3 9 6 5 6 5 5 4 4 4 4 4 3 5 4 4 5 6 7 7 7 7 7 6 6 7 6 5 4 5 5 4 5 5 4 4 4 4 4 4 4 4
3 4 6 7 6 7 6 6 5 5 5 5 3 3 7 3 5 5 5 5 4 5 4 4 4 4 4 6 5 5 5 5 4 4 5 4 4 5 4 3 5 3 4
4 6 7 8 8 9 7 6 6 4 3 4 3 3 3 3 3 3 4 4 4 3 3 4 5 4 4 4 5 6 6 5 6 6 5 5 4 3 2 3 4 4 3
4 6 7 9 9 9 8 8 6 6 6 5 4 4 3 3 4 5 4 4 4 4 4 5 5 7 6 5 5 4 5 5 5 5 7 5 5 5 4 4 4 4 5
3 3 4 6 12 10 7 6 6 6 7 7 7 6 5 5 4 5 5 5 5 6 5 5 4 6 7 8 7 8 9 12 7 8 6 7 7 7 5 5 5 4 3
4 5 5 7 6 9 8 6 6 6 8 9 8 6 6 5 5 5 5 5 6 5 5 4 5 8 9 8 9 11 10 12 10 10 8 6 6 5 5 6 8 5 5
Wind_Direction
201 182 200 213 207 216 205 191 189 203 222 224 188 186 203 207 210 205 222 209 214 211 221 214 248 237 225 186 197 50 82 110 114 286 245 160 190 169 135 115 152 148 172
192 187 189 196 211 211 217 193 189 205 207 217 219 200 235 250 235 202 223 223 228 222 212 193 243 272 253 205 174 167 152 110 136 208 261 216 224 178 159 157 171 173 152
92 308 252 211 208 217 222 206 184 196 224 223 206 207 213 218 234 216 218 221 223 228 237 218 236 215 271 226 201 180 178 140 143 157 201 190 177 162 161 162 145 115 106
140 358 304 308 271 233 227 219 190 192 195 216 222 207 220 221 219 215 215 223 226 224 233 228 230 221 242 218 224 202 189 165 160 142 157 245 199 201 125 146 151 111 116
144 190 187 121 125 124 70 346 276 204 201 206 212 228 226 221 224 218 219 217 219 226 233 234 233 230 231 218 189 207 182 164 156 166 183 185 205 169 180 178 147 128 113
182 204 223 184 198 222 328 292 292 318 252 200 211 216 221 223 219 214 209 214 222 225 234 237 231 239 255 206 176 162 177 174 196 181 195 180 227 190 143 169 142 141 180
208 216 220 207 209 206 201 265 269 276 296 253 222 211 220 223 217 219 221 218 214 225 230 233 234 224 198 160 135 110 88 77 193 184 192 185 174 185 156 141 165 158 174
191 216 205 212 229 225 234 249 274 243 251 262 240 222 225 224 216 220 225 223 219 223 225 227 218 206 189 165 146 144 113 56 341 226 159 138 135 164 181 161 150 110 87
205 215 224 211 213 225 217 217 229 239 242 234 239 230 219 236 212 219 217 216 227 236 231 217 216 205 201 192 156 146 131 99 71 88 104 107 99 81 184 129 141 134 123
177 195 210 213 214 213 235 244 226 217 241 237 236 223 221 234 213 219 214 212 231 226 227 201 222 214 179 181 162 160 156 175 152 128 92 65 65 62 66 84 129 125 72
172 182 192 224 240 238 234 217 247 244 244 244 236 235 224 209 231 219 207 205 224 221 211 191 191 204 172 176 177 176 178 150 149 116 106 66 35 75 78 74 78 116 128
175 196 260 230 245 229 229 279 283 272 269 285 270 265 267 264 252 247 221 208 211 213 213 183 156 172 158 167 152 148 134 131 123 112 106 86 66 23 347 57 96 93 89
175 234 255 272 138 106 120 70 4 358 256 252 250 266 278 306 305 318 281 232 216 211 187 162 147 150 126 129 135 139 141 139 135 132 128 122 126 167 232 63 65 77 72
183 234 263 187 140 98 74 60 8 262 276 279 253 244 273 269 264 274 296 252 226 209 135 145 153 142 132 133 127 129 137 136 138 133 140 141 170 149 117 124 134 103 83
229 218 237 185 150 124 94 96 159 246 256 280 267 306 261 262 258 229 229 228 170 165 138 140 147 149 142 141 132 127 123 122 122 117 121 110 131 166 193 183 124 97 104
215 289 227 176 163 161 159 143 36 321 315 286 274 238 273 284 280 130 97 77 78 108 129 148 157 159 136 140 127 120 111 110 119 144 145 140 148 162 134 47 79 114 116
184 243 226 218 176 155 163 180 189 207 114 46 13 356 215 237 151 123 113 94 92 99 98 93 65 95 95 100 92 107 130 124 137 147 135 134 139 128 105 103 94 110 108
177 257 230 197 153 140 143 143 146 205 241 339 16 49 83 99 102 108 121 107 90 78 96 101 100 94 91 82 77 82 89 108 96 101 110 128 121 114 102 104 102 118 111
185 220 188 132 116 114 112 111 112 112 103 100 88 66 80 91 89 76 71 97 112 110 109 103 105 103 100 106 105 92 77 95 115 109 104 106 115 108 93 101 107 112 118
202 228 157 138 138 130 133 131 135 129 113 105 106 107 112 90 89 84 80 87 93 97 102 101 103 103 104 109 123 145 165 109 102 103 107 118 115 123 126 119 113 124 143
191 211 154 141 145 140 139 141 134 132 127 122 100 61 67 101 98 96 100 106 111 109 116 121 126 147 152 149 142 138 113 119 133 126 111 111 136 112 104 118 123 118 119
200 180 162 154 147 147 152 143 141 147 141 127 101 74 59 83 114 116 113 119 128 129 140 148 166 173 160 148 138 128 135 142 145 131 133 129 122 112 139 121 123 125 132
197 194 171 158 159 152 152 156 147 150 143 142 146 141 122 120 116 119 142 143 147 178 201 169 156 153 152 148 140 148 152 174 184 156 138 140 139 134 133 135 143 134 139
183 200 181 168 166 171 168 163 164 168 161 159 172 175 168 187 177 176 190 208 192 183 173 174 169 160 157 158 167 175 185 183 170 178 157 149 148 135 131 141 146 138 132
146 132 155 168 165 170 161 140 155 167 175 176 188 187 179 194 207 233 211 174 173 173 179 177 178 181 181 182 190 200 184 183 161 155 152 146 147 145 140 138 142 143 140
108 113 120 117 127 152 155 148 176 194 182 190 188 184 181 194 195 179 175 161 177 173 157 176 187 195 211 182 192 193 176 173 159 163 146 140 135 129 131 136 161 165 169